Temperature
21 21 22 21 19 18 20 21 21 22 22 22 22 21 20 19 19 18 18 18 18 18 18 18 18 18 18 18 18 18 18 18 18 18 18 18 18 18 18 18 18 18 18 18 18 18 18 18 18
22 22 22 21 18 18 20 21 21 22 23 22 22 21 20 19 19 18 18 18 18 18 18 18 18 18 18 17 18 18 18 18 18 18 18 18 17 18 18 18 18 18 18 18 18 17 17 17 17
22 22 22 18 19 19 21 21 22 23 23 23 21 20 20 19 19 18 18 18 18 18 18 18 18 18 17 17 17 17 17 17 17 17 17 17 17 17 17 17 17 17 17 17 17 17 17 17 17
22 22 21 19 20 21 21 21 22 23 23 22 21 20 19 19 19 18 18 18 18 18 18 18 17 17 17 17 17 17 17 17 17 17 17 17 17 17 17 17 17 17 17 17 17 17 17 17 17
22 22 19 19 21 21 21 23 23 22 22 21 20 19 19 19 19 18 18 18 18 18 18 17 17 17 17 17 17 17 17 17 17 17 17 17 17 17 17 17 17 17 17 17 17 17 17 17 16
22 20 19 19 21 22 22 23 23 22 21 21 20 19 18 18 19 18 18 18 18 18 18 17 17 17 17 17 17 17 17 17 17 17 17 17 17 17 17 17 17 17 17 17 17 17 17 16 16
21 18 19 20 20 21 22 23 23 22 22 21 21 18 18 18 19 19 18 18 18 18 18 17 17 17 17 17 17 17 17 17 17 17 16 16 16 16 16 16 17 16 17 16 16 16 16 16 16
22 19 20 20 20 21 23 23 23 23 22 22 21 19 18 19 19 19 18 18 18 18 18 17 17 17 17 17 17 17 17 16 16 16 16 16 16 16 16 16 16 16 16 16 16 16 16 16 16
23 18 19 21 21 21 23 23 23 23 22 22 21 21 20 19 19 18 18 18 18 18 18 18 17 17 17 17 17 17 16 16 16 16 16 16 16 16 16 16 16 16 16 16 16 16 16 16 16
22 19 21 22 22 22 23 23 23 22 21 20 20 20 20 19 19 19 18 18 18 18 18 17 17 17 17 17 17 16 16 16 16 16 16 16 16 16 16 16 16 16 16 16 16 16 16 16 16
22 21 22 23 23 23 23 23 23 22 20 20 20 20 20 19 19 19 19 19 18 18 18 18 17 17 17 17 17 16 16 16 16 16 16 16 16 16 16 16 16 16 16 16 16 16 16 16 16
22 23 23 23 24 24 23 23 22 22 22 22 22 21 20 20 20 19 19 19 18 18 18 18 17 17 17 17 17 17 16 16 16 16 16 16 16 16 16 16 16 16 16 16 16 16 16 16 16
22 23 24 24 24 23 23 23 22 22 22 22 21 21 20 20 20 20 19 19 19 18 18 18 18 17 17 17 17 17 16 16 16 16 16 16 16 16 16 16 16 16 16 16 16 16 16 16 16
23 23 23 23 23 23 22 22 22 22 22 22 21 21 21 20 20 20 19 19 19 18 18 18 18 17 17 17 17 17 16 16 16 16 16 16 16 16 16 16 16 16 16 15 16 16 16 15 15
23 22 22 22 23 23 22 21 21 22 22 21 21 21 21 20 20 20 20 19 19 19 18 18 18 17 17 17 17 17 16 16 16 16 16 16 16 16 16 16 16 16 15 15 15 15 15 15 15
22 21 20 21 22 23 21 20 21 22 22 21 21 21 21 21 20 20 20 20 19 19 18 18 18 18 17 17 17 17 17 16 16 16 16 16 16 16 16 16 16 15 15 15 15 15 15 15 15
20 19 20 21 22 22 21 20 20 22 22 21 21 21 21 21 20 20 20 20 19 19 19 18 18 18 17 17 17 17 17 16 16 16 16 16 16 16 16 16 15 15 15 15 15 15 15 15 15
19 20 20 20 22 22 20 20 20 22 21 21 21 21 21 21 21 20 20 20 19 19 19 18 18 18 17 17 17 17 16 16 16 16 16 16 16 16 16 15 15 15 15 15 15 15 15 15 15
21 20 20 21 22 21 20 19 20 21 21 20 20 21 21 21 21 20 20 20 19 19 19 18 18 18 17 17 17 17 16 16 16 16 16 16 16 16 15 15 15 15 15 15 15 15 15 15 15
21 20 20 21 22 21 20 19 20 20 20 21 21 21 21 21 20 20 20 20 19 19 19 18 18 18 17 17 17 17 16 16 16 16 16 16 16 16 16 15 15 15 15 15 15 15 15 15 15
21 20 20 20 21 21 20 19 19 20 20 21 21 21 21 21 20 20 20 19 19 19 19 18 18 18 17 17 17 16 16 16 16 16 16 16 16 16 16 15 15 15 15 15 15 15 15 15 15
20 21 21 21 19 18 19 17 18 18 19 19 20 20 20 20 20 20 20 19 19 19 19 18 18 18 17 17 17 17 16 16 16 16 16 16 16 15 15 15 15 15 15 15 15 15 15 15 15
20 21 21 20 19 18 18 17 17 18 18 18 19 20 20 20 20 20 20 20 19 19 19 18 18 18 17 17 17 17 16 16 16 16 16 16 16 15 15 15 15 15 15 15 15 15 15 15 15
21 20 19 17 17 17 18 17 17 17 18 19 19 20 20 20 20 20 20 20 19 19 19 18 18 17 17 17 17 16 16 16 16 16 16 16 16 15 15 15 15 15 15 15 15 15 15 15 15
19 17 16 17 16 16 18 18 17 18 19 19 19 20 20 20 20 20 20 19 19 19 18 18 18 17 17 17 17 16 16 16 16 16 16 16 16 15 15 15 15 15 15 15 15 15 15 15 15
19 17 16 17 16 16 18 17 18 19 20 20 20 20 20 20 20 20 20 19 19 19 18 18 18 17 17 17 16 16 16 16 16 16 16 16 16 16 15 15 15 15 15 15 15 15 15 15 15
19 17 17 16 17 16 17 17 18 19 19 19 19 20 20 20 20 20 19 19 19 19 18 18 18 17 17 17 17 16 16 16 16 16 16 16 16 15 15 15 15 15 15 15 15 15 15 15 15
19 18 15 16 16 16 17 17 17 18 18 18 18 19 19 19 19 19 19 19 19 19 18 18 18 17 17 17 16 16 16 16 16 16 16 16 16 15 15 15 15 15 15 15 15 15 15 15 15
18 17 16 14 15 15 16 16 18 18 18 18 18 19 19 19 19 19 19 19 19 19 18 18 17 17 17 17 16 16 16 16 16 16 16 16 16 16 16 15 15 15 15 15 15 15 15 15 15
18 17 15 15 15 14 14 16 18 18 18 18 18 19 19 19 19 19 19 19 18 18 18 18 17 17 17 17 16 16 16 16 16 16 16 16 16 16 16 15 15 15 15 15 15 15 15 15 15
Wind_Speed
6 4 2 3 5 6 4 1 2 3 4 5 9 10 8 6 4 5 2 7 9 7 7 9 10 10 10 10 10 10 11 11 11 11 11 10 10 10 10 10 10 10 10 9 9 9 9 9 8
3 1 3 5 5 4 2 0 4 4 6 8 9 8 7 6 4 6 4 6 9 8 8 9 10 10 10 10 10 10 10 11 10 10 10 10 10 10 10 10 10 9 9 9 8 8 8 8 7
2 0 4 5 4 4 3 1 4 4 6 5 5 5 5 4 4 4 6 9 9 8 8 10 11 10 10 10 9 10 10 10 10 9 9 9 9 9 9 9 9 9 8 8 8 8 7 7 7
2 4 5 5 5 3 5 3 4 5 6 6 6 6 4 3 4 5 9 10 9 7 9 11 11 11 10 10 9 9 9 9 9 9 9 9 9 9 9 9 9 8 8 8 8 8 7 8 8
3 5 6 4 3 2 3 4 5 6 4 5 7 6 4 3 7 9 10 10 9 7 8 10 11 11 10 10 9 9 9 8 8 9 8 8 8 9 9 9 8 8 8 8 7 7 7 8 9
4 4 5 3 3 2 2 4 7 8 7 7 7 6 3 3 7 8 10 9 9 8 8 9 10 10 10 9 9 9 8 8 8 8 8 8 8 8 8 8 8 8 8 8 8 7 8 8 10
4 4 3 4 3 3 3 3 6 6 5 4 7 6 4 3 6 8 9 9 8 7 7 7 8 8 9 9 8 8 8 8 8 7 7 7 7 7 8 8 8 8 8 8 8 7 8 9 11
5 4 3 2 3 1 2 2 5 6 4 5 5 8 6 6 6 7 7 7 7 6 6 6 7 7 6 7 7 7 7 8 7 7 7 7 7 7 6 7 7 8 8 8 8 8 8 9 11
4 5 2 2 4 3 2 4 2 4 6 4 4 5 8 10 8 7 6 4 5 6 5 5 6 6 6 6 6 6 6 6 6 5 6 5 5 5 5 6 7 7 8 8 7 7 8 9 10
4 3 2 3 5 4 2 4 4 5 6 5 5 6 9 10 9 9 8 6 6 6 6 6 6 6 5 5 5 4 4 4 4 4 4 5 5 5 5 6 7 7 7 6 6 6 7 8 9
3 4 2 1 3 4 3 1 2 7 4 6 10 11 11 9 8 9 8 8 8 7 7 6 6 6 5 3 4 3 2 2 3 4 5 5 5 5 5 4 4 5 5 5 5 5 6 7 8
2 2 3 2 2 3 2 2 2 4 6 10 13 14 12 10 9 9 9 7 7 7 7 7 6 5 5 5 4 3 3 2 3 5 7 6 4 3 3 3 3 4 4 4 4 4 6 7 8
2 1 1 2 2 3 4 3 2 2 5 10 12 11 11 11 9 7 8 9 8 7 7 7 7 6 4 4 3 3 3 3 4 5 6 7 4 3 3 2 3 3 4 4 4 4 5 6 7
3 2 1 1 2 2 4 1 2 4 6 9 11 10 10 11 10 7 7 8 8 8 8 7 7 6 5 4 3 3 4 4 5 5 6 7 7 5 3 2 3 3 4 5 5 5 5 5 5
1 1 2 2 2 2 4 2 3 5 7 8 9 9 9 8 8 9 9 9 9 8 7 7 8 7 6 5 4 4 4 5 4 4 6 7 8 7 5 3 3 4 6 7 6 7 6 5 6
2 2 1 4 3 4 5 3 5 4 7 7 7 7 8 7 8 8 8 8 8 8 7 7 8 7 6 5 4 4 5 5 4 5 6 7 8 8 6 4 3 5 6 5 4 4 5 5 5
2 1 3 4 3 3 4 4 5 3 6 6 7 7 7 7 6 6 8 9 8 8 8 6 6 7 6 5 5 4 4 4 4 5 5 6 7 8 7 4 4 6 5 4 4 4 4 4 4
4 3 2 4 3 3 3 3 4 4 6 7 6 6 6 8 8 8 8 8 8 7 7 7 6 6 5 4 4 3 3 3 3 4 5 7 7 8 8 5 5 6 4 4 4 5 4 3 4
3 2 3 4 3 2 3 4 5 5 5 5 5 5 6 7 7 8 8 7 7 6 6 7 7 6 5 4 4 3 2 2 2 2 5 6 7 8 7 5 4 5 4 4 5 4 4 3 3
2 2 3 4 3 2 3 4 5 5 6 7 7 7 7 6 5 7 7 7 7 7 7 7 7 7 6 5 4 3 3 2 2 1 3 5 6 7 7 6 4 4 5 5 4 4 3 2 2
2 3 4 3 3 1 1 3 4 4 3 4 5 7 8 9 9 9 8 8 7 8 9 9 8 7 7 6 4 4 3 3 2 2 1 2 4 6 7 7 5 5 5 5 4 4 4 2 0
3 3 3 2 1 3 1 2 6 5 3 4 5 5 7 7 8 9 10 9 9 9 9 9 9 8 7 7 7 7 5 3 3 2 2 1 3 4 6 6 6 5 4 5 4 4 3 3 1
5 3 1 2 2 2 2 2 6 3 4 7 6 6 7 8 8 10 11 11 9 8 8 8 8 7 7 7 8 8 5 4 2 2 2 1 1 2 4 6 6 5 4 4 4 3 3 3 3
1 3 5 4 3 3 5 5 5 4 8 7 6 5 7 8 8 7 7 7 7 7 7 7 8 7 7 8 8 9 8 6 5 4 3 2 1 1 3 4 5 5 4 4 4 4 4 3 3
4 5 3 4 2 5 2 3 6 7 6 7 7 6 6 6 6 6 7 7 7 7 8 7 9 7 8 8 8 8 9 8 7 6 5 4 2 2 3 3 4 4 4 4 4 4 3 3 3
2 6 5 4 4 4 2 3 5 4 3 3 3 4 5 6 6 7 8 8 8 8 9 8 9 8 8 8 8 7 7 6 5 6 5 5 4 4 4 4 4 4 5 5 4 3 3 3 3
2 2 5 4 2 2 3 2 4 4 3 2 2 1 3 5 6 7 7 7 7 8 9 10 10 8 8 8 7 7 7 6 6 5 5 4 4 3 4 4 4 4 4 5 4 3 2 3 3
3 3 4 3 2 3 3 3 4 2 2 2 1 1 2 3 4 5 6 6 6 7 7 9 9 9 8 8 8 7 7 7 6 6 5 5 5 4 5 5 5 4 4 4 4 3 3 4 2
2 2 3 2 3 3 3 5 4 6 4 4 4 4 4 4 4 5 5 5 5 5 6 8 8 8 8 8 7 6 6 6 6 6 6 5 5 5 5 6 6 5 5 5 5 4 4 4 3
4 3 4 2 2 2 2 6 5 4 3 2 2 3 3 4 4 5 5 5 5 5 6 7 7 8 7 7 7 7 6 6 6 6 5 5 5 5 5 5 5 5 5 5 5 5 5 5 4
Wind_Direction
309 313 97 66 55 55 64 32 101 55 60 67 80 86 85 67 88 128 169 125 124 128 125 120 118 113 111 108 104 103 103 100 99 98 96 95 94 93 93 94 93 94 94 92 89 87 81 78 76
323 338 72 60 79 75 28 308 87 88 126 118 87 84 81 74 87 113 122 134 128 128 127 123 119 116 114 111 108 107 107 105 103 101 100 97 97 95 94 95 95 94 93 91 90 88 83 81 78
308 75 75 69 90 128 143 174 110 89 99 102 85 63 79 106 111 128 145 139 129 126 128 128 124 121 118 115 111 110 109 109 107 105 102 99 98 99 97 96 96 95 94 90 90 89 86 82 79
56 46 57 77 94 139 154 167 128 93 66 65 98 70 60 80 127 137 136 133 129 128 128 130 128 125 121 119 115 114 113 113 111 110 107 104 101 98 97 98 96 96 98 97 95 92 86 80 78
71 69 63 69 89 104 130 131 107 98 85 83 94 94 79 64 113 124 128 129 131 138 137 135 132 128 125 122 122 122 119 117 115 113 113 108 104 101 100 98 95 96 101 101 98 95 89 82 80
56 67 82 95 98 94 90 104 97 95 106 106 104 108 116 132 123 128 133 138 144 147 144 141 138 134 133 130 130 131 127 123 120 121 119 115 111 106 101 100 98 99 102 105 103 97 92 85 81
98 86 111 132 113 89 113 101 101 110 111 123 125 107 133 162 151 143 141 146 149 145 140 138 140 139 138 137 137 136 134 130 127 126 124 121 117 111 108 104 102 102 102 104 104 99 92 84 85
125 99 81 109 121 145 174 109 117 116 111 115 114 131 164 192 164 141 138 144 147 148 146 148 146 145 147 146 145 142 142 141 135 130 123 116 109 106 111 109 105 104 102 104 103 96 87 82 83
99 79 110 168 153 174 153 95 85 82 92 74 88 140 163 163 146 129 125 128 143 147 151 155 156 154 160 163 157 151 148 148 144 139 130 114 103 102 108 117 113 108 104 103 98 92 85 79 80
90 109 191 190 163 158 125 121 136 95 86 80 82 110 142 150 145 146 151 157 154 157 167 167 170 170 172 165 150 151 150 147 147 147 142 132 124 117 113 115 114 111 105 96 88 85 77 73 75
125 154 159 125 147 135 115 106 121 125 131 164 157 157 159 160 158 161 165 164 167 168 165 168 169 170 169 158 155 161 155 151 155 156 151 140 124 114 106 103 99 93 87 74 70 69 71 80 84
113 157 142 138 128 119 121 106 79 136 178 177 166 162 166 167 169 168 169 169 165 160 163 165 166 166 169 162 164 163 153 149 148 156 154 141 129 121 113 113 105 92 87 80 75 75 83 83 85
113 141 131 142 113 121 95 91 125 166 163 155 157 161 167 172 173 174 168 167 163 161 165 165 164 164 162 152 161 152 154 152 155 153 157 149 138 137 124 120 111 103 102 99 93 89 89 86 86
191 175 254 171 148 136 109 92 107 199 158 151 160 172 178 178 174 173 166 163 166 168 169 166 163 162 154 152 152 147 147 148 136 136 154 152 144 138 126 116 104 104 105 100 100 100 96 90 88
143 67 326 259 206 188 112 12 214 202 157 156 168 174 174 180 173 176 176 170 170 168 166 168 165 161 153 150 154 141 136 133 123 131 140 143 144 139 130 121 111 115 107 98 91 90 88 83 80
42 53 278 271 197 198 129 228 256 206 156 164 175 176 170 175 177 182 172 163 165 162 161 168 163 156 151 149 145 139 130 126 127 126 126 133 138 139 128 118 111 114 105 101 95 89 84 78 77
20 216 237 279 232 177 149 209 245 192 157 170 180 186 183 171 173 179 170 161 162 163 158 155 150 152 148 143 132 130 123 121 123 119 115 123 127 132 128 118 117 116 106 104 109 93 99 95 87
229 220 229 232 250 143 161 216 234 214 176 188 187 185 184 177 185 180 170 164 161 161 153 150 148 145 138 129 115 103 96 102 101 115 123 128 130 128 124 121 121 120 108 98 100 102 92 101 108
210 204 241 242 236 157 188 218 236 224 197 199 199 194 191 192 188 175 170 162 154 152 151 152 150 151 140 135 132 129 135 134 113 121 127 126 128 127 127 129 125 123 122 122 117 109 97 92 105
218 220 253 275 257 208 211 240 239 226 208 202 196 194 191 185 173 172 169 162 164 166 163 163 162 160 157 158 159 155 150 144 141 118 107 119 131 136 137 134 131 129 119 112 112 114 113 113 118
248 213 227 251 315 357 80 312 273 263 236 214 195 191 187 182 180 179 173 172 170 174 173 174 176 168 165 156 133 112 88 70 63 79 105 115 136 139 132 138 137 133 131 135 137 135 132 142 134
250 245 212 216 84 275 164 266 271 249 264 235 210 190 188 189 181 180 176 177 181 185 179 173 175 173 172 157 146 145 143 151 183 183 168 138 118 129 135 136 134 139 139 144 153 147 141 137 149
221 232 208 222 184 291 267 197 274 247 240 245 229 206 193 190 183 183 184 184 184 181 176 171 169 171 170 160 155 149 148 160 158 147 142 139 115 126 133 133 133 138 143 147 145 138 139 137 150
175 44 21 34 83 270 237 186 264 232 224 233 229 206 189 188 187 181 179 176 177 175 171 166 166 171 168 161 159 158 160 159 150 155 160 165 148 147 145 138 138 148 153 160 155 148 143 142 132
63 81 23 353 353 257 245 175 246 239 223 212 206 198 187 179 172 168 168 174 177 173 171 167 168 172 170 165 170 172 169 169 171 174 177 170 163 170 178 159 153 155 163 163 150 142 145 141 133
201 141 161 207 233 276 331 222 254 255 208 187 179 186 182 178 174 174 177 178 179 178 174 171 172 173 171 172 181 180 171 173 179 179 178 181 187 187 181 171 168 170 164 157 146 140 152 143 138
135 185 181 158 230 253 264 267 312 1 40 51 62 110 184 189 182 180 178 177 178 177 179 177 174 175 176 178 178 182 178 177 179 179 176 181 188 184 180 172 170 171 163 154 147 144 146 134 136
129 144 81 117 181 248 270 240 231 245 277 282 232 229 232 207 190 178 173 177 183 180 179 172 172 175 179 181 182 179 183 183 176 168 173 181 187 183 176 176 170 173 167 157 148 143 141 128 128
56 75 97 130 166 177 246 263 225 204 216 225 228 226 219 201 187 183 178 172 169 163 165 168 172 172 177 181 180 174 177 174 167 170 180 183 185 180 183 185 174 176 174 163 151 152 148 141 136
165 169 140 159 249 194 205 265 275 206 213 222 255 257 237 199 184 170 162 152 153 160 163 169 171 173 181 179 171 171 173 170 170 177 184 180 183 185 184 179 170 173 170 166 159 161 161 156 159
Height
1515 1514 1514 1514 1518 1529 1532 1527 1520 1518 1518 1518 1517 1519 1522 1526 1530 1537 1534 1532 1532 1532 1531 1531 1530 1530 1530 1529 1530 1529 1529 1529 1529 1530 1530 1530 1530 1530 1530 1530 1530 1530 1530 1530 1530 1530 1531 1531 1531
1515 1514 1515 1515 1526 1541 1536 1525 1521 1518 1519 1519 1520 1522 1524 1528 1529 1531 1531 1532 1532 1532 1532 1531 1531 1530 1530 1530 1530 1530 1530 1530 1530 1530 1530 1530 1530 1530 1531 1531 1531 1531 1531 1531 1531 1531 1531 1531 1532
1515 1514 1516 1519 1529 1537 1532 1523 1520 1518 1518 1518 1522 1524 1526 1529 1530 1531 1532 1533 1533 1533 1532 1532 1531 1531 1531 1530 1530 1530 1530 1530 1531 1531 1531 1531 1531 1531 1531 1531 1531 1531 1531 1531 1531 1532 1532 1532 1532
1515 1516 1517 1524 1530 1526 1523 1521 1518 1518 1519 1520 1522 1526 1529 1531 1531 1532 1533 1533 1533 1533 1533 1532 1532 1532 1531 1531 1531 1531 1531 1531 1531 1531 1531 1531 1532 1532 1532 1532 1532 1532 1532 1532 1532 1532 1532 1533 1533
1515 1516 1523 1530 1528 1523 1519 1518 1518 1519 1521 1523 1523 1528 1531 1533 1532 1533 1533 1534 1534 1534 1533 1533 1533 1532 1532 1531 1531 1531 1531 1532 1532 1532 1532 1532 1532 1532 1532 1533 1533 1532 1532 1533 1533 1533 1533 1534 1534
1516 1518 1532 1536 1529 1523 1520 1519 1518 1521 1523 1524 1525 1529 1533 1534 1533 1534 1534 1534 1534 1534 1534 1533 1533 1533 1533 1532 1532 1532 1532 1532 1532 1532 1533 1533 1533 1533 1533 1533 1533 1533 1533 1533 1534 1534 1534 1535 1535
1518 1523 1530 1531 1530 1525 1521 1520 1519 1521 1523 1524 1525 1529 1533 1534 1534 1534 1534 1534 1534 1534 1534 1534 1534 1533 1533 1533 1533 1533 1533 1533 1533 1533 1534 1534 1534 1534 1534 1534 1534 1534 1534 1535 1535 1536 1536 1536 1536
1517 1522 1529 1530 1529 1527 1521 1520 1521 1521 1523 1525 1525 1528 1531 1533 1534 1534 1535 1535 1535 1535 1535 1535 1535 1534 1534 1534 1534 1534 1534 1534 1534 1534 1534 1535 1535 1535 1535 1535 1535 1536 1536 1536 1536 1537 1537 1538 1537
1517 1526 1532 1528 1527 1524 1520 1520 1522 1522 1523 1524 1525 1526 1529 1531 1533 1534 1535 1535 1535 1536 1536 1535 1535 1535 1535 1535 1535 1535 1535 1535 1535 1535 1536 1536 1536 1536 1536 1537 1537 1537 1537 1538 1538 1538 1539 1539 1539
1518 1528 1525 1520 1520 1520 1519 1520 1521 1523 1524 1526 1527 1528 1529 1531 1532 1533 1534 1535 1535 1535 1536 1536 1536 1536 1536 1536 1536 1536 1536 1536 1536 1536 1537 1537 1537 1538 1538 1538 1538 1539 1539 1539 1540 1540 1540 1540 1540
1517 1522 1519 1518 1518 1518 1519 1520 1521 1522 1525 1525 1526 1527 1529 1531 1532 1533 1534 1534 1534 1535 1536 1536 1536 1537 1537 1536 1537 1537 1537 1537 1537 1537 1538 1538 1539 1539 1539 1539 1540 1540 1540 1540 1541 1541 1542 1542 1542
1518 1518 1517 1518 1518 1518 1519 1520 1521 1521 1523 1523 1524 1526 1528 1530 1531 1532 1533 1534 1535 1535 1536 1536 1537 1537 1537 1537 1537 1538 1538 1538 1538 1538 1539 1539 1539 1540 1540 1541 1541 1541 1542 1542 1542 1542 1543 1543 1543
1518 1518 1517 1517 1518 1518 1519 1520 1521 1522 1522 1523 1525 1526 1528 1529 1530 1532 1532 1533 1534 1535 1535 1536 1536 1537 1537 1538 1538 1538 1538 1538 1539 1539 1539 1540 1540 1541 1541 1542 1542 1542 1543 1543 1543 1544 1544 1544 1544
1517 1517 1517 1517 1518 1518 1519 1521 1521 1522 1522 1523 1524 1526 1527 1528 1529 1530 1531 1532 1533 1534 1535 1536 1536 1537 1538 1538 1538 1538 1539 1539 1539 1539 1540 1541 1541 1542 1542 1543 1543 1543 1544 1544 1544 1545 1545 1545 1545
1517 1518 1519 1517 1517 1518 1519 1523 1521 1521 1522 1523 1524 1524 1526 1527 1528 1529 1530 1531 1532 1533 1535 1535 1536 1537 1537 1538 1538 1539 1539 1540 1540 1540 1541 1541 1542 1542 1543 1543 1544 1544 1545 1545 1545 1546 1546 1546 1546
1518 1522 1527 1519 1517 1517 1523 1530 1521 1520 1521 1521 1523 1523 1524 1526 1527 1528 1530 1531 1532 1533 1534 1535 1536 1537 1537 1538 1538 1539 1539 1540 1540 1541 1541 1542 1542 1543 1543 1544 1544 1545 1545 1546 1547 1547 1547 1547 1548
1525 1531 1530 1523 1516 1516 1521 1526 1520 1519 1520 1520 1521 1522 1523 1524 1526 1527 1528 1529 1531 1532 1533 1534 1535 1536 1537 1538 1538 1539 1540 1540 1541 1541 1542 1542 1543 1543 1544 1544 1545 1546 1546 1547 1547 1548 1548 1549 1549
1532 1530 1528 1525 1517 1517 1522 1523 1519 1518 1519 1519 1520 1521 1522 1523 1524 1526 1527 1529 1530 1531 1533 1533 1535 1536 1537 1538 1538 1539 1540 1540 1541 1542 1542 1543 1543 1544 1544 1545 1545 1546 1547 1547 1548 1549 1549 1550 1550
1522 1525 1527 1523 1516 1518 1522 1522 1519 1517 1517 1518 1518 1519 1520 1521 1523 1524 1526 1527 1529 1530 1532 1532 1534 1535 1536 1537 1537 1538 1539 1540 1541 1542 1543 1543 1543 1544 1544 1545 1546 1546 1547 1548 1549 1549 1550 1550 1551
1520 1525 1525 1520 1515 1517 1522 1521 1517 1515 1515 1515 1515 1516 1518 1519 1521 1522 1524 1526 1527 1528 1530 1531 1532 1533 1534 1536 1537 1538 1539 1540 1541 1542 1543 1543 1544 1544 1545 1545 1546 1547 1547 1548 1549 1550 1550 1551 1552
1520 1523 1523 1522 1518 1517 1521 1525 1520 1515 1514 1514 1514 1514 1515 1517 1518 1520 1522 1523 1525 1526 1528 1529 1530 1532 1533 1534 1536 1537 1538 1539 1540 1541 1542 1543 1544 1544 1545 1546 1546 1547 1548 1548 1549 1550 1551 1551 1552
1523 1515 1516 1519 1526 1532 1526 1540 1525 1517 1515 1513 1512 1513 1513 1515 1516 1517 1519 1521 1522 1524 1526 1527 1529 1530 1531 1533 1534 1535 1536 1537 1539 1540 1541 1542 1543 1544 1545 1545 1546 1547 1548 1549 1549 1550 1551 1552 1552
1516 1512 1514 1518 1524 1531 1528 1537 1530 1518 1518 1513 1510 1510 1511 1512 1513 1515 1516 1518 1520 1522 1524 1525 1527 1528 1530 1531 1532 1534 1535 1537 1538 1540 1541 1542 1543 1544 1544 1545 1546 1547 1548 1549 1549 1550 1551 1551 1552
1511 1514 1518 1523 1529 1540 1529 1535 1533 1521 1514 1509 1508 1508 1509 1510 1511 1512 1514 1516 1518 1520 1522 1523 1525 1526 1528 1529 1531 1532 1534 1536 1537 1539 1540 1541 1542 1543 1544 1545 1546 1547 1548 1548 1549 1550 1550 1551 1552
1514 1528 1542 1544 1547 1542 1526 1529 1527 1511 1506 1505 1505 1506 1507 1508 1509 1510 1512 1514 1515 1517 1519 1521 1522 1524 1526 1528 1530 1531 1533 1534 1536 1537 1539 1540 1541 1542 1543 1544 1545 1546 1547 1548 1549 1550 1550 1551 1551
1518 1525 1543 1550 1549 1541 1528 1529 1519 1505 1503 1502 1503 1504 1505 1506 1507 1508 1509 1511 1512 1514 1516 1518 1520 1522 1524 1526 1528 1530 1532 1533 1535 1536 1538 1539 1540 1541 1542 1543 1544 1545 1546 1547 1548 1549 1550 1550 1551
1519 1524 1524 1536 1536 1541 1534 1523 1513 1506 1504 1504 1504 1505 1505 1505 1505 1506 1507 1509 1510 1512 1514 1516 1518 1520 1522 1524 1526 1528 1530 1532 1534 1535 1536 1538 1539 1540 1542 1543 1543 1545 1546 1547 1548 1548 1549 1550 1550
1515 1519 1530 1536 1544 1547 1535 1528 1524 1513 1509 1506 1505 1505 1504 1504 1504 1505 1505 1507 1508 1510 1512 1514 1516 1518 1521 1523 1525 1527 1529 1531 1532 1534 1535 1537 1538 1539 1540 1541 1542 1544 1545 1546 1547 1548 1549 1549 1550
1520 1522 1528 1535 1538 1545 1545 1533 1509 1509 1507 1505 1504 1503 1503 1503 1503 1503 1504 1506 1507 1508 1510 1513 1515 1517 1519 1521 1523 1525 1527 1529 1531 1532 1534 1535 1537 1538 1539 1540 1541 1542 1544 1545 1546 1547 1548 1549 1549
1516 1520 1527 1538 1538 1538 1541 1531 1503 1503 1503 1503 1503 1503 1502 1502 1502 1502 1503 1505 1506 1507 1509 1511 1513 1515 1517 1519 1522 1524 1526 1528 1529 1531 1533 1534 1536 1537 1538 1539 1540 1541 1543 1544 1545 1546 1547 1548 1549